This is the latest recevied weather packets stored in our database for station/object KD8UYA. If no packets are shown the sender has not sent any weather packets the latest 10 day(s).
| Time | Temp. | Humidity | Pressure | Rain* | Wind** | Luminosity | Snow |
|---|---|---|---|---|---|---|---|
| 1777442411 | 10° C | 95% | 1010.6 hPa | 0 mm | - | - | - |
| 1777441510 | 10° C | 94% | 1010.4 hPa | 0 mm | - | - | - |
| 1777440609 | 10.56° C | 93% | 1010.4 hPa | 0 mm | - | - | - |
| 1777439708 | 10.56° C | 92% | 1010.6 hPa | 0 mm | - | - | - |
| 1777438805 | 10.56° C | 92% | 1010.3 hPa | 0 mm | - | - | - |
| 1777437903 | 11.11° C | 91% | 1010.4 hPa | 0 mm | - | - | - |
| 1777437060 | 11.67° C | 90% | 1010.4 hPa | 0 mm | - | - | - |
| 1777436159 | 12.22° C | 88% | 1010.5 hPa | 0 mm | - | - | - |
| 1777435254 | 12.22° C | 88% | 1010.5 hPa | 0 mm | - | - | - |
| 1777434353 | 12.78° C | 88% | 1010.7 hPa | 0 mm | - | - | - |
| 1777433453 | 12.78° C | 87% | 1011 hPa | 0 mm | - | - | - |
| 1777432552 | 12.78° C | 87% | 1010.8 hPa | 0 mm | - | - | - |
| 1777431651 | 13.33° C | 87% | 1010.7 hPa | 0 mm | - | - | - |
| 1777430766 | 13.33° C | 87% | 1010.7 hPa | 0 mm | - | - | - |
| 1777429854 | 13.33° C | 86% | 1010.8 hPa | 0 mm | - | - | - |
| 1777428954 | 13.89° C | 84% | 1011.2 hPa | 0 mm | - | - | - |
| 1777428050 | 14.44° C | 83% | 1011.4 hPa | 0 mm | - | - | - |
| 1777427148 | 15° C | 82% | 1011.3 hPa | 0 mm | - | - | - |
| 1777426252 | 15° C | 81% | 1010.8 hPa | 0 mm | - | - | - |
| 1777425346 | 15.56° C | 80% | 1010.9 hPa | 0 mm | - | - | - |
| 1777424444 | 15.56° C | 80% | 1010.8 hPa | 0 mm | - | - | - |
| 1777423553 | 15.56° C | 79% | 1010.5 hPa | 0 mm | - | - | - |
| 1777422641 | 16.11° C | 78% | 1010.5 hPa | 0 mm | - | - | - |
| 1777421757 | 16.67° C | 78% | 1010.1 hPa | 0 mm | - | - | - |
| 1777420843 | 17.22° C | 75% | 1009.9 hPa | 0 mm | - | - | - |
* Rain latest hour (hover to see other rain measurements)
** Current wind speed in m/s (hover to see current wind gust speed)